Terminal Aerodrome Forecast
Issued by NWS Pittsburgh, PA

Current Version | Previous Version | Graphics & Text | Print | Product List | Glossary On
Versions: 1 2 3 4 5 6 7 8 9 10 11 12 13 14 15 16 17 18 19 20 21 22 23 24 25 26 27 28 29 30
000
FTUS41 KPBZ 231100
TAFPIT
TAF
KPIT 231120Z 2312/2418 22005KT P6SM SCT050
     FM231600 25013KT 5SM -SHRA VCTS BKN035CB
     FM232200 31012KT P6SM BKN035
     FM240300 33006KT P6SM SCT035=

USA.gov is the U.S. government's official web portal to all federal, state and local government web resources and services.